Time,TemperatureF,DewpointF,PressureIn,WindDirection,WindDirectionDegrees,WindSpeedMPH,WindSpeedGustMPH,Humidity,HourlyPrecipIn,Conditions,Clouds,dailyrainin,SoftwareType,DateUTC
2013-02-06 00:02:00,26.0,24.0,-100.00,WSW,245,3.0,6.0,91,0.00,,,-99.99,,2013-02-06 05:02:00,
2013-02-06 00:12:00,26.0,24.0,-100.00,WSW,250,4.0,7.0,91,0.00,,,-99.99,,2013-02-06 05:12:00,
2013-02-06 00:22:00,26.0,24.0,-100.00,West,260,5.0,7.0,91,0.00,,,-99.99,,2013-02-06 05:22:00,
2013-02-06 00:32:00,26.0,24.0,-100.00,WSW,255,5.0,7.0,91,0.00,,,-99.99,,2013-02-06 05:32:00,
2013-02-06 00:41:00,26.0,24.0,-100.00,WSW,245,4.0,9.0,90,0.00,,,-99.99,,2013-02-06 05:41:00,
2013-02-06 00:52:00,26.0,24.0,-100.00,WSW,245,6.0,7.0,90,0.00,,,-99.99,,2013-02-06 05:52:00,
2013-02-06 01:01:00,26.0,24.0,-100.00,West,275,6.0,10.0,90,0.00,,,-99.99,,2013-02-06 06:01:00,
2013-02-06 01:11:00,26.0,24.0,-100.00,WSW,255,4.0,9.0,90,0.00,,,-99.99,,2013-02-06 06:11:00,
2013-02-06 01:21:00,26.0,24.0,-100.00,West,260,6.0,9.0,89,0.00,,,-99.99,,2013-02-06 06:21:00,
2013-02-06 01:32:00,26.0,24.0,-100.00,West,265,7.0,9.0,89,0.00,,,-99.99,,2013-02-06 06:32:00,
2013-02-06 01:42:00,26.0,24.0,-100.00,West,270,6.0,9.0,89,0.00,,,-99.99,,2013-02-06 06:42:00,
2013-02-06 01:51:00,26.0,24.0,-100.00,West,265,5.0,10.0,89,0.00,,,-99.99,,2013-02-06 06:51:00,
2013-02-06 02:02:00,26.0,24.0,-100.00,West,275,6.0,9.0,89,0.00,,,-99.99,,2013-02-06 07:02:00,
2013-02-06 02:11:00,26.0,24.0,-100.00,West,265,6.0,9.0,89,0.00,,,-99.99,,2013-02-06 07:11:00,
2013-02-06 02:22:00,26.0,24.0,-100.00,West,270,3.0,8.0,89,0.00,,,-99.99,,2013-02-06 07:22:00,
2013-02-06 02:32:00,26.0,24.0,-100.00,West,275,4.0,7.0,89,0.00,,,-99.99,,2013-02-06 07:32:00,
2013-02-06 02:42:00,26.0,24.0,-100.00,West,280,4.0,9.0,89,0.00,,,-99.99,,2013-02-06 07:42:00,
2013-02-06 02:51:00,26.0,24.0,-100.00,West,260,4.0,7.0,89,0.00,,,-99.99,,2013-02-06 07:51:00,
2013-02-06 03:01:00,26.0,24.0,-100.00,WSW,255,6.0,9.0,89,0.00,,,-99.99,,2013-02-06 08:01:00,
2013-02-06 03:11:00,26.0,24.0,-100.00,West,265,4.0,8.0,89,0.00,,,-99.99,,2013-02-06 08:11:00,
2013-02-06 03:21:00,27.0,24.0,-100.00,WSW,245,4.0,8.0,88,0.00,,,-99.99,,2013-02-06 08:21:00,
2013-02-06 03:32:00,27.0,24.0,-100.00,WSW,255,3.0,6.0,88,0.00,,,-99.99,,2013-02-06 08:32:00,
2013-02-06 03:42:00,27.0,24.0,-100.00,WSW,250,4.0,7.0,88,0.00,,,-99.99,,2013-02-06 08:42:00,
2013-02-06 03:53:00,27.0,24.0,-100.00,WSW,240,4.0,7.0,88,0.00,,,-99.99,,2013-02-06 08:53:00,
2013-02-06 04:02:00,27.0,24.0,-100.00,WSW,255,5.0,7.0,88,0.00,,,-99.99,,2013-02-06 09:02:00,
2013-02-06 04:11:00,27.0,24.0,-100.00,West,265,6.0,9.0,88,0.00,,,-99.99,,2013-02-06 09:11:00,
2013-02-06 04:21:00,27.0,24.0,-100.00,West,265,2.0,7.0,88,0.00,,,-99.99,,2013-02-06 09:21:00,
2013-02-06 04:32:00,27.0,24.0,-100.00,West,260,4.0,6.0,88,0.00,,,-99.99,,2013-02-06 09:32:00,
2013-02-06 04:41:00,27.0,24.0,-100.00,WSW,255,2.0,6.0,88,0.00,,,-99.99,,2013-02-06 09:41:00,
2013-02-06 04:52:00,27.0,24.0,-100.00,West,260,4.0,7.0,88,0.00,,,-99.99,,2013-02-06 09:52:00,
2013-02-06 05:01:00,27.0,24.0,-100.00,West,260,4.0,8.0,88,0.00,,,-99.99,,2013-02-06 10:01:00,
2013-02-06 05:11:00,27.0,24.0,-100.00,West,265,4.0,8.0,87,0.00,,,-99.99,,2013-02-06 10:11:00,
2013-02-06 05:21:00,27.0,24.0,-100.00,WSW,255,5.0,8.0,88,0.00,,,-99.99,,2013-02-06 10:21:00,
2013-02-06 05:32:00,27.0,24.0,-100.00,West,270,6.0,9.0,88,0.00,,,-99.99,,2013-02-06 10:32:00,
2013-02-06 05:42:00,27.0,24.0,-100.00,WNW,285,5.0,8.0,88,0.00,,,-99.99,,2013-02-06 10:42:00,
2013-02-06 05:52:00,27.0,24.0,-100.00,WNW,290,5.0,9.0,88,0.00,,,-99.99,,2013-02-06 10:52:00,
2013-02-06 06:01:00,27.0,24.0,-100.00,West,280,7.0,11.0,87,0.00,,,-99.99,,2013-02-06 11:01:00,
2013-02-06 06:11:00,27.0,24.0,-100.00,West,270,6.0,9.0,88,0.00,,,-99.99,,2013-02-06 11:11:00,
2013-02-06 06:22:00,27.0,24.0,-100.00,WSW,255,4.0,9.0,87,0.00,,,-99.99,,2013-02-06 11:22:00,
2013-02-06 06:32:00,27.0,24.0,-100.00,West,260,4.0,9.0,87,0.00,,,-99.99,,2013-02-06 11:32:00,
2013-02-06 06:42:00,27.0,24.0,-100.00,West,260,6.0,9.0,86,0.00,,,-99.99,,2013-02-06 11:42:00,
2013-02-06 06:52:00,27.0,24.0,-100.00,West,265,6.0,9.0,86,0.00,,,-99.99,,2013-02-06 11:52:00,
2013-02-06 07:02:00,27.0,24.0,-100.00,West,265,4.0,9.0,85,0.00,,,-99.99,,2013-02-06 12:02:00,
2013-02-06 07:12:00,27.0,23.0,-100.00,West,265,3.0,6.0,85,0.00,,,-99.99,,2013-02-06 12:12:00,
2013-02-06 07:22:00,27.0,23.0,-100.00,West,280,3.0,6.0,85,0.00,,,-99.99,,2013-02-06 12:22:00,
2013-02-06 07:32:00,27.0,23.0,-100.00,West,270,1.0,4.0,85,0.00,,,-99.99,,2013-02-06 12:32:00,
2013-02-06 07:42:00,27.0,23.0,-100.00,West,280,2.0,6.0,84,0.00,,,-99.99,,2013-02-06 12:42:00,
2013-02-06 07:52:00,27.0,23.0,-100.00,West,275,4.0,7.0,83,0.00,,,-99.99,,2013-02-06 12:52:00,
2013-02-06 08:02:00,27.0,22.0,-100.00,WNW,290,4.0,9.0,82,0.00,,,-99.99,,2013-02-06 13:02:00,
2013-02-06 08:12:00,27.0,22.0,-100.00,WNW,290,6.0,9.0,81,0.00,,,-99.99,,2013-02-06 13:12:00,
2013-02-06 08:22:00,27.0,22.0,-100.00,WNW,300,4.0,9.0,81,0.00,,,-99.99,,2013-02-06 13:22:00,
2013-02-06 08:32:00,27.0,22.0,-100.00,West,280,7.0,10.0,79,0.00,,,-99.99,,2013-02-06 13:32:00,
2013-02-06 08:42:00,27.0,22.0,-100.00,WNW,295,7.0,15.0,80,0.00,,,-99.99,,2013-02-06 13:42:00,
2013-02-06 08:52:00,27.0,22.0,-100.00,NW,315,8.0,12.0,80,0.00,,,-99.99,,2013-02-06 13:52:00,
2013-02-06 09:02:00,27.0,21.0,-100.00,NW,310,8.0,16.0,77,0.00,,,-99.99,,2013-02-06 14:02:00,
2013-02-06 09:22:00,27.0,19.0,-100.00,NW,305,8.0,11.0,73,0.00,,,-99.99,,2013-02-06 14:22:00,
2013-02-06 09:32:00,27.0,19.0,-100.00,NW,320,9.0,14.0,70,0.00,,,-99.99,,2013-02-06 14:32:00,
2013-02-06 09:42:00,27.0,18.0,-100.00,NW,315,10.0,16.0,70,0.00,,,-99.99,,2013-02-06 14:42:00,
2013-02-06 09:52:00,26.0,19.0,-100.00,North,0,8.0,14.0,74,0.00,,,-99.99,,2013-02-06 14:52:00,
2013-02-06 10:02:00,26.0,19.0,-100.00,NW,325,7.0,16.0,77,0.00,,,-99.99,,2013-02-06 15:02:00,
2013-02-06 10:11:00,26.0,20.0,-100.00,NNW,335,9.0,13.0,78,0.00,,,-99.99,,2013-02-06 15:11:00,
2013-02-06 10:21:00,25.0,19.0,-100.00,NNE,15,7.0,11.0,77,0.00,,,-99.99,,2013-02-06 15:21:00,
2013-02-06 10:32:00,25.0,19.0,-100.00,North,0,6.0,12.0,76,0.00,,,-99.99,,2013-02-06 15:32:00,
2013-02-06 10:42:00,25.0,18.0,-100.00,North,0,7.0,13.0,76,0.00,,,-99.99,,2013-02-06 15:42:00,
2013-02-06 10:52:00,25.0,18.0,-100.00,NNE,30,4.0,9.0,73,0.00,,,-99.99,,2013-02-06 15:52:00,
2013-02-06 11:01:00,25.0,18.0,-100.00,NW,325,6.0,9.0,74,0.00,,,-99.99,,2013-02-06 16:01:00,
2013-02-06 11:11:00,25.0,18.0,-100.00,North,355,6.0,9.0,73,0.00,,,-99.99,,2013-02-06 16:11:00,
2013-02-06 11:21:00,26.0,18.0,-100.00,NNW,340,7.0,9.0,72,0.00,,,-99.99,,2013-02-06 16:21:00,
2013-02-06 11:32:00,26.0,18.0,-100.00,NNW,330,6.0,9.0,73,0.00,,,-99.99,,2013-02-06 16:32:00,
2013-02-06 11:42:00,26.0,19.0,-100.00,North,5,4.0,6.0,73,0.00,,,-99.99,,2013-02-06 16:42:00,
2013-02-06 11:52:00,27.0,19.0,-100.00,NE,35,2.0,8.0,68,0.00,,,-99.99,,2013-02-06 16:52:00,
2013-02-06 12:02:00,26.0,18.0,-100.00,NNW,330,7.0,9.0,71,0.00,,,-99.99,,2013-02-06 17:02:00,
2013-02-06 12:11:00,26.0,17.0,-100.00,North,350,7.0,9.0,68,0.00,,,-99.99,,2013-02-06 17:11:00,
2013-02-06 12:22:00,27.0,17.0,-100.00,North,5,4.0,7.0,66,0.00,,,-99.99,,2013-02-06 17:22:00,
2013-02-06 12:32:00,27.0,18.0,-100.00,North,355,6.0,9.0,67,0.00,,,-99.99,,2013-02-06 17:32:00,
2013-02-06 12:42:00,27.0,17.0,-100.00,NNW,335,7.0,11.0,64,0.00,,,-99.99,,2013-02-06 17:42:00,
2013-02-06 12:52:00,28.0,18.0,-100.00,WNW,295,3.0,9.0,64,0.00,,,-99.99,,2013-02-06 17:52:00,
2013-02-06 13:02:00,27.0,16.0,-100.00,North,0,6.0,12.0,64,0.00,,,-99.99,,2013-02-06 18:02:00,
2013-02-06 13:11:00,27.0,16.0,-100.00,NNW,335,4.0,9.0,62,0.00,,,-99.99,,2013-02-06 18:11:00,
2013-02-06 13:23:00,26.0,15.0,-100.00,NNW,330,7.0,9.0,63,0.00,,,-99.99,,2013-02-06 18:23:00,
2013-02-06 13:32:00,30.0,16.0,-100.00,NNW,340,4.0,7.0,55,0.00,,,-99.99,,2013-02-06 18:32:00,
2013-02-06 13:42:00,29.0,16.0,-100.00,NNW,340,6.0,9.0,59,0.00,,,-99.99,,2013-02-06 18:42:00,
2013-02-06 13:52:00,29.0,17.0,-100.00,NNW,345,4.0,9.0,59,0.00,,,-99.99,,2013-02-06 18:52:00,
2013-02-06 14:02:00,28.0,15.0,-100.00,NNW,330,6.0,10.0,57,0.00,,,-99.99,,2013-02-06 19:02:00,
2013-02-06 14:11:00,29.0,15.0,-100.00,NW,325,6.0,8.0,55,0.00,,,-99.99,,2013-02-06 19:11:00,
2013-02-06 14:21:00,29.0,15.0,-100.00,NW,325,6.0,9.0,55,0.00,,,-99.99,,2013-02-06 19:21:00,
2013-02-06 14:32:00,29.0,15.0,-100.00,NW,310,6.0,11.0,55,0.00,,,-99.99,,2013-02-06 19:32:00,
2013-02-06 14:42:00,30.0,15.0,-100.00,NNW,345,6.0,7.0,53,0.00,,,-99.99,,2013-02-06 19:42:00,
2013-02-06 14:52:00,29.0,16.0,-100.00,North,0,4.0,9.0,56,0.00,,,-99.99,,2013-02-06 19:52:00,
2013-02-06 15:01:00,29.0,15.0,-100.00,NE,35,4.0,9.0,54,0.00,,,-99.99,,2013-02-06 20:01:00,
2013-02-06 15:11:00,29.0,15.0,-100.00,NW,315,6.0,10.0,55,0.00,,,-99.99,,2013-02-06 20:11:00,
2013-02-06 15:21:00,29.0,15.0,-100.00,NNW,330,2.0,7.0,53,0.00,,,-99.99,,2013-02-06 20:21:00,
2013-02-06 15:32:00,30.0,15.0,-100.00,North,5,2.0,6.0,53,0.00,,,-99.99,,2013-02-06 20:32:00,
2013-02-06 15:42:00,30.0,14.0,-100.00,ENE,65,0.0,6.0,51,0.00,,,-99.99,,2013-02-06 20:42:00,
2013-02-06 15:52:00,30.0,15.0,-100.00,ENE,60,2.0,7.0,54,0.00,,,-99.99,,2013-02-06 20:52:00,
2013-02-06 16:02:00,30.0,16.0,-100.00,NNE,15,2.0,4.0,54,0.00,,,-99.99,,2013-02-06 21:02:00,
2013-02-06 16:11:00,30.0,15.0,-100.00,ENE,60,0.0,6.0,51,0.00,,,-99.99,,2013-02-06 21:11:00,
2013-02-06 16:21:00,31.0,15.0,-100.00,East,80,0.0,2.0,50,0.00,,,-99.99,,2013-02-06 21:21:00,
2013-02-06 16:32:00,30.0,14.0,-100.00,ESE,120,0.0,1.0,50,0.00,,,-99.99,,2013-02-06 21:32:00,
2013-02-06 16:42:00,30.0,14.0,-100.00,SSE,155,0.0,3.0,51,0.00,,,-99.99,,2013-02-06 21:42:00,
2013-02-06 16:51:00,31.0,14.0,-100.00,SSE,165,0.0,2.0,48,0.00,,,-99.99,,2013-02-06 21:51:00,
2013-02-06 17:01:00,31.0,14.0,-100.00,South,180,1.0,2.0,48,0.00,,,-99.99,,2013-02-06 22:01:00,
2013-02-06 17:11:00,30.0,15.0,-100.00,SE,125,0.0,2.0,51,0.00,,,-99.99,,2013-02-06 22:11:00,
2013-02-06 17:21:00,31.0,14.0,-100.00,South,175,0.0,2.0,48,0.00,,,-99.99,,2013-02-06 22:21:00,
2013-02-06 17:32:00,30.0,14.0,-100.00,NW,310,0.0,2.0,51,0.00,,,-99.99,,2013-02-06 22:32:00,
2013-02-06 17:42:00,30.0,15.0,-100.00,North,0,0.0,0.0,52,0.00,,,-99.99,,2013-02-06 22:42:00,
2013-02-06 17:52:00,30.0,15.0,-100.00,NE,45,0.0,0.0,52,0.00,,,-99.99,,2013-02-06 22:52:00,
2013-02-06 18:01:00,29.0,15.0,-100.00,East,80,0.0,0.0,55,0.00,,,-99.99,,2013-02-06 23:01:00,
2013-02-06 18:11:00,28.0,14.0,-100.00,NE,40,0.0,0.0,55,0.00,,,-99.99,,2013-02-06 23:11:00,
2013-02-06 18:21:00,28.0,16.0,-100.00,NNE,25,0.0,0.0,60,0.00,,,-99.99,,2013-02-06 23:21:00,
2013-02-06 18:32:00,27.0,15.0,-100.00,NE,35,0.0,1.0,60,0.00,,,-99.99,,2013-02-06 23:32:00,
2013-02-06 18:42:00,27.0,14.0,-100.00,NNE,30,0.0,1.0,57,0.00,,,-99.99,,2013-02-06 23:42:00,
2013-02-06 18:52:00,26.0,14.0,-100.00,NNE,30,0.0,0.0,59,0.00,,,-99.99,,2013-02-06 23:52:00,
2013-02-06 19:02:00,26.0,15.0,-100.00,NNE,30,0.0,0.0,62,0.00,,,-99.99,,2013-02-07 00:02:00,
2013-02-06 19:11:00,26.0,14.0,-100.00,NE,55,0.0,1.0,60,0.00,,,-99.99,,2013-02-07 00:11:00,
2013-02-06 19:21:00,26.0,14.0,-100.00,ENE,65,1.0,2.0,59,0.00,,,-99.99,,2013-02-07 00:21:00,
2013-02-06 19:32:00,26.0,14.0,-100.00,ENE,75,1.0,2.0,59,0.00,,,-99.99,,2013-02-07 00:32:00,
2013-02-06 19:42:00,25.0,14.0,-100.00,East,100,0.0,1.0,62,0.00,,,-99.99,,2013-02-07 00:42:00,
2013-02-06 19:52:00,25.0,14.0,-100.00,ENE,65,1.0,2.0,61,0.00,,,-99.99,,2013-02-07 00:52:00,
2013-02-06 20:01:00,25.0,14.0,-100.00,ESE,105,0.0,1.0,61,0.00,,,-99.99,,2013-02-07 01:01:00,
2013-02-06 20:11:00,24.0,13.0,-100.00,ESE,115,0.0,1.0,62,0.00,,,-99.99,,2013-02-07 01:11:00,
2013-02-06 20:21:00,24.0,13.0,-100.00,SE,125,0.0,0.0,62,0.00,,,-99.99,,2013-02-07 01:21:00,
2013-02-06 20:32:00,24.0,14.0,-100.00,ESE,120,0.0,0.0,63,0.00,,,-99.99,,2013-02-07 01:32:00,
2013-02-06 20:42:00,24.0,13.0,-100.00,ESE,120,1.0,1.0,62,0.00,,,-99.99,,2013-02-07 01:42:00,
2013-02-06 20:52:00,24.0,13.0,-100.00,East,100,1.0,2.0,63,0.00,,,-99.99,,2013-02-07 01:52:00,
2013-02-06 21:02:00,24.0,13.0,-100.00,East,80,1.0,2.0,62,0.00,,,-99.99,,2013-02-07 02:02:00,
2013-02-06 21:11:00,24.0,13.0,-100.00,East,80,2.0,2.0,63,0.00,,,-99.99,,2013-02-07 02:11:00,
2013-02-06 21:21:00,22.0,13.0,-100.00,East,95,1.0,2.0,69,0.00,,,-99.99,,2013-02-07 02:21:00,
2013-02-06 21:32:00,22.0,13.0,-100.00,ENE,75,3.0,3.0,67,0.00,,,-99.99,,2013-02-07 02:32:00,
2013-02-06 21:41:00,22.0,13.0,-100.00,ENE,75,3.0,3.0,67,0.00,,,-99.99,,2013-02-07 02:41:00,
2013-02-06 21:51:00,22.0,13.0,-100.00,ENE,75,3.0,3.0,67,0.00,,,-99.99,,2013-02-07 02:51:00,
2013-02-06 22:02:00,22.0,14.0,-100.00,ESE,105,3.0,4.0,68,0.00,,,-99.99,,2013-02-07 03:02:00,
2013-02-06 22:11:00,23.0,13.0,-100.00,East,95,4.0,5.0,66,0.00,,,-99.99,,2013-02-07 03:11:00,
2013-02-06 22:21:00,23.0,13.0,-100.00,ENE,75,3.0,5.0,65,0.00,,,-99.99,,2013-02-07 03:21:00,
2013-02-06 22:32:00,22.0,13.0,-100.00,East,100,2.0,6.0,66,0.00,,,-99.99,,2013-02-07 03:32:00,
2013-02-06 22:42:00,22.0,13.0,-100.00,ENE,75,3.0,4.0,67,0.00,,,-99.99,,2013-02-07 03:42:00,
2013-02-06 22:52:00,21.0,12.0,-100.00,East,100,4.0,4.0,69,0.00,,,-99.99,,2013-02-07 03:52:00,
2013-02-06 23:01:00,21.0,13.0,-100.00,East,90,5.0,7.0,69,0.00,,,-99.99,,2013-02-07 04:01:00,
2013-02-06 23:11:00,21.0,12.0,-100.00,East,95,3.0,6.0,67,0.00,,,-99.99,,2013-02-07 04:11:00,
2013-02-06 23:22:00,21.0,13.0,-100.00,ESE,105,4.0,6.0,69,0.00,,,-99.99,,2013-02-07 04:22:00,
2013-02-06 23:32:00,22.0,12.0,-100.00,ESE,110,4.0,6.0,66,0.00,,,-99.99,,2013-02-07 04:32:00,
2013-02-06 23:41:00,21.0,12.0,-100.00,ESE,115,2.0,5.0,68,0.00,,,-99.99,,2013-02-07 04:41:00,
2013-02-06 23:53:00,20.0,12.0,-100.00,SE,135,4.0,6.0,69,0.00,,,-99.99,,2013-02-07 04:53:00,